Weather Roundup
Issued by NWS Chicago, IL

Home | Current Version | Previous Version | Graphics & Text | Print | Product List | Glossary On
Versions: 1 2 3 4 5 6 7 8 9 10 11 12 13 14 15 16 17 18 19 20 21 22 23 24 25 26 27 28 29 30 31 32 33 34 35 36 37 38 39 40 41 42 43 44 45 46 47 48 49 50
000
NZUS59 KLOT 261903
HRRLOT

CHICAGO AREA WEATHER ROUNDUP
NATIONAL WEATHER SERVICE CHICAGO/ROMEOVILLE IL
200 PM CDT WED APR 26 2017

NOTE: "FAIR" INDICATES FEW OR NO CLOUDS BELOW 12,000 FEET WITH NO
SIGNIFICANT WEATHER AND/OR OBSTRUCTIONS TO VISIBILITY.

* THESE STATIONS ARE NOT UNDER NWS QUALITY CONTROL. THEY ALSO MAY NOT
  REPORT WEATHER SUCH AS PRECIPITATION OR FOG.

ILZ005-006-012>014-019>023-262000-
NORTHEAST ILLINOIS

CITY           SKY/WX    TMP DP  RH WIND       PRES   REMARKS
OHARE          PTSUNNY   72  56  57 S15G22    29.47S
MIDWAY         PTSUNNY   75  57  53 SW14G28   29.48R
AURORA         CLOUDY    72  59  63 SW17G23   29.49R
LANSING*       MOSUNNY   76  60  56 SW18G28   29.49R
WAUKEGAN       MOSUNNY   73  59  61 SW12G24   29.45S
DUPAGE AIRPORT CLOUDY    71  58  63 SW18      29.48R
WHEELING       CLOUDY    71  58  63 SW13G26   29.49R
NORTHERLY ISL    N/A     74  53  48 W12         N/A
$$

WIZ051-052-058>065-066-070>072-262000-
SOUTHEAST WISCONSIN

CITY           SKY/WX    TMP DP  RH WIND       PRES   REMARKS
MILWAUKEE      PTSUNNY   71  61  70 SW21G26   29.45S
KENOSHA*       PTSUNNY   71  58  63 SW14G23   29.44F
RACINE*        PTSUNNY   72  57  59 W14G22    29.46S
WAUKESHA       CLOUDY    63  57  82 SW12G20   29.46R
$$

INZ001>003-010>013-019-020-262000-
NORTHWEST INDIANA

CITY           SKY/WX    TMP DP  RH WIND       PRES   REMARKS
GARY*          MOSUNNY   79  52  38 SW24G36   29.50R
MICHIGAN CITY* NOT AVBL
RENSSELAER*    NOT AVBL
$$

LMZ740>746-262000-
SOUTHERN LAKE MICHIGAN

STATION/POSITION TIME  SKY/WX   TEMP WIND        PRES    VSBY
                                AIR  DIR/SP/G
                 (UTC)          (F)  (DEG/KT/KT) (MB)    (MI)
HARRISON CRIB    1810            72  240/ 21/ 27   N/A
BURNHAM HARBOR   1900            73  200/ 11/ 19   N/A
CALUMET HARBOR   1830            75  230/ 13/ 21  998.0R
BURNS HARBOR     1840            74  240/ 22/ 26  998.6R
MICHIGAN CITY    1840            72  220/ 23/ 27   N/A
$$

ABBREVIATIONS USED IN REMARKS
   TC - TEMPERATURE IN CELSIUS
  WCI - WIND CHILL INDEX
   HX - HEAT INDEX
  VSB - VISIBILITY
$$




USA.gov is the U.S. government's official web portal to all federal, state and local government web resources and services.